Temp
21 20 21 23 23 22 22 21 22 23 25 23 22 22 23 24 22 19 18 16 15 15 14 12 11 9 9 9 9 10 11 12 13 14 17 18 21 21 22 22 23 22 20 20
21 20 22 22 21 21 21 21 21 23 24 23 22 22 23 21 19 16 15 14 13 11 11 10 9 7 7 7 7 7 8 9 10 11 14 15 17 20 21 22 23 22 20 19
21 23 21 21 21 21 21 21 21 21 21 22 21 22 23 19 17 15 13 12 11 9 8 8 7 6 5 5 5 5 6 6 7 9 11 12 13 16 21 21 22 22 22 20
21 23 21 20 20 21 20 21 20 20 19 19 22 19 22 20 16 13 11 10 9 7 7 7 6 5 3 3 3 3 4 5 6 8 10 11 11 14 20 21 21 22 22 21
20 21 20 19 21 21 20 20 19 19 19 19 20 20 19 18 12 11 10 9 7 7 6 5 4 4 3 2 1 2 3 5 6 6 8 9 11 13 17 21 22 22 21 20
20 22 20 21 22 20 20 19 19 20 20 18 22 22 15 10 8 9 8 7 6 5 5 4 3 2 1 0 0 1 2 4 5 6 7 9 11 13 17 19 20 22 21 20
19 20 21 20 19 20 19 18 18 18 18 18 23 21 12 10 9 8 6 6 5 4 3 3 2 1 0 -0 -0 -0 1 4 4 5 7 8 11 12 12 14 14 13 15 18
19 19 20 20 19 20 19 19 18 17 18 19 21 17 9 9 8 8 6 6 4 3 3 2 2 1 -0 -1 -1 -1 -0 2 4 4 5 6 8 8 8 9 10 12 12 12
18 20 22 21 20 20 19 18 20 18 18 17 17 11 13 11 8 5 5 4 3 2 2 1 1 -0 -1 -1 -1 -1 -1 -0 3 4 4 5 5 6 6 7 7 7 12 10
17 16 20 20 20 20 19 20 16 17 15 16 19 13 10 9 6 5 4 3 3 2 1 1 0 -1 -1 -2 -1 -1 -1 -0 1 2 3 4 3 4 4 4 5 6 5 8
17 15 18 19 18 18 18 17 17 17 17 15 16 12 8 6 5 4 3 3 2 1 1 -0 -1 -1 -2 -2 -1 -1 -1 -1 0 2 2 2 3 2 2 2 2 2 4 5
17 13 13 17 20 20 19 17 17 14 16 17 15 10 7 5 5 5 3 3 2 2 0 -1 -1 -1 -1 -2 -2 -2 -2 -1 -1 2 2 2 2 2 2 2 1 1 2 2
16 12 14 16 18 18 18 17 17 15 12 13 13 10 8 7 6 4 3 3 2 2 1 -0 -1 -1 -1 -2 -2 -2 -2 -2 -1 0 1 2 2 2 1 1 1 0 1 0
14 15 15 12 13 15 14 14 14 14 13 14 11 7 6 6 5 4 3 2 2 1 0 -0 -1 -1 -2 -2 -2 -2 -2 -2 -2 -1 -0 0 0 1 1 1 0 -0 -0 -0
14 13 12 14 14 12 10 11 10 11 11 12 9 8 6 5 4 3 3 3 3 3 2 1 -0 -1 -1 -1 -2 -2 -2 -2 -2 -2 -1 -1 -1 -0 0 0 -0 -1 -1 -1
14 13 10 9 12 12 9 8 7 11 11 10 9 6 5 5 5 3 2 2 2 2 2 0 -1 -1 -0 -0 -1 -2 -2 -3 -2 -2 -2 -1 -1 -1 -1 -1 -1 -1 -1 -2
13 13 12 12 11 13 10 8 9 11 12 11 10 7 6 5 4 2 2 2 1 2 1 -0 -1 -1 -0 0 -1 -1 -2 -2 -3 -3 -3 -2 -2 -2 -2 -2 -2 -2 -2 -2
14 14 14 13 12 12 8 11 12 10 10 9 7 7 7 5 3 2 1 1 0 2 1 1 -2 -2 0 0 0 -1 -1 -2 -2 -2 -3 -3 -3 -3 -2 -2 -2 -2 -2 -2
15 14 13 13 13 9 9 11 11 11 9 10 8 7 6 5 4 2 1 -0 -0 2 2 2 0 -0 -0 -0 0 -0 -1 -1 -2 -2 -2 -3 -3 -3 -3 -3 -3 -3 -3 -3
15 15 13 14 13 13 12 12 13 13 10 10 9 7 6 5 5 2 0 -0 -1 2 3 2 2 1 1 1 0 1 -0 -1 -1 -2 -2 -2 -3 -4 -4 -4 -4 -4 -4 -4
13 13 12 13 14 10 13 12 12 10 9 10 10 8 7 6 3 0 -1 -1 -1 1 3 3 2 1 1 1 0 0 1 0 -1 -1 -1 -2 -2 -3 -4 -4 -5 -5 -4 -5
14 13 13 14 13 10 12 10 10 9 10 10 10 9 8 3 2 1 -1 -1 1 3 3 3 2 1 -0 -0 0 -0 -0 1 0 -1 -1 -1 -1 -2 -3 -4 -5 -6 -6 -6
13 14 12 9 8 8 8 9 10 10 9 9 8 6 4 3 2 1 1 4 4 4 3 2 1 0 -1 -1 -1 -1 -1 0 -0 -1 -2 -1 -2 -1 -3 -3 -5 -6 -7 -7
13 13 11 9 7 7 7 9 10 10 9 8 7 6 5 3 3 3 4 4 4 3 2 2 1 0 -1 -2 -2 -3 -2 -2 -1 -2 -2 -2 -2 -2 -2 -4 -4 -6 -7 -8
13 13 9 7 7 7 7 7 8 8 8 7 7 6 5 5 4 4 4 4 3 2 1 1 -0 -1 -1 -3 -3 -4 -4 -3 -3 -3 -3 -4 -3 -3 -3 -4 -5 -6 -8 -8
14 11 9 10 8 8 7 6 6 5 6 6 6 5 5 5 4 4 3 2 2 1 0 -0 -1 -2 -2 -4 -5 -6 -5 -5 -5 -4 -5 -4 -4 -4 -5 -5 -5 -5 -6 -7
Height
774 782 775 762 761 765 769 770 770 759 748 756 761 759 754 748 753 767 776 784 789 789 790 790 788 783 778 774 767 760 754 748 742 739 736 732 727 726 728 728 733 734 736 741
776 779 763 761 766 770 771 772 768 755 747 754 757 759 748 753 767 780 789 794 795 797 797 795 792 789 783 776 771 763 755 750 744 740 736 733 725 720 719 721 724 726 729 735
771 757 761 767 767 770 766 766 763 765 760 757 755 753 745 762 776 785 795 800 803 806 802 797 794 791 785 778 772 765 757 749 743 737 733 727 721 714 712 713 714 718 722 724
764 754 759 767 768 763 770 758 768 770 770 770 748 767 745 754 776 791 798 802 807 808 806 802 796 792 787 780 773 764 757 748 740 735 730 725 720 713 706 700 704 709 713 714
768 759 767 769 763 760 768 763 770 770 771 766 755 754 760 763 789 801 807 808 813 813 809 805 800 794 788 781 773 763 754 747 739 732 727 720 712 704 696 693 694 698 704 711
762 752 759 758 753 764 763 769 762 757 760 768 734 738 777 800 813 813 812 814 818 815 814 808 804 796 789 781 770 760 752 743 736 728 721 714 706 697 691 692 689 683 695 708
761 756 752 757 763 760 767 770 769 762 764 758 720 733 791 805 810 813 819 818 821 821 817 811 804 795 788 780 769 761 752 742 733 725 718 709 700 693 691 687 684 649 686 703
757 758 749 751 758 752 759 758 769 772 757 749 732 755 806 809 814 816 820 822 825 824 820 814 806 798 790 781 770 761 753 744 734 726 718 708 697 695 692 676 686 691 702 714
758 744 732 745 749 754 757 763 753 763 760 762 756 792 787 797 810 823 824 826 827 826 822 816 809 801 792 783 772 764 757 747 738 728 719 713 700 694 697 699 704 714 696 711
761 769 743 745 750 751 758 752 770 765 775 760 736 775 793 806 819 823 827 829 827 827 823 818 811 804 795 786 777 770 762 748 743 731 725 717 702 701 704 703 704 708 717 714
766 771 756 748 756 757 759 761 761 764 762 767 759 782 811 823 825 828 830 830 830 828 825 820 815 808 801 790 782 777 761 750 745 736 730 719 708 705 711 716 716 728 716 714
764 779 779 755 742 739 747 756 760 776 761 749 762 790 817 826 825 827 831 831 830 828 827 823 818 812 804 796 790 784 775 766 746 743 729 724 721 722 718 723 714 729 719 734
766 779 772 758 752 748 752 758 757 766 779 770 773 793 816 819 823 829 832 832 831 828 827 824 820 814 809 805 799 790 783 772 757 748 738 731 730 730 731 736 737 737 736 735
770 766 765 775 771 761 768 769 771 770 771 763 780 810 820 820 824 830 833 833 830 831 829 826 822 817 813 810 805 798 789 781 772 762 749 745 745 746 744 740 740 743 746 746
771 774 775 766 770 774 788 784 787 777 776 768 791 799 817 825 829 832 833 833 831 830 830 829 827 822 817 812 808 804 797 788 780 776 769 765 765 763 761 753 758 759 754 762
770 773 788 792 774 774 795 796 800 778 780 785 794 814 820 824 827 831 835 834 835 835 835 834 832 829 824 819 814 808 804 800 794 787 779 777 777 777 770 770 771 770 765 758
767 770 774 770 775 771 783 792 785 778 775 776 780 801 816 821 828 834 835 837 837 837 837 838 838 834 830 825 821 815 809 804 797 793 789 788 790 781 779 779 778 774 774 777
761 760 760 760 770 768 790 777 775 783 787 789 799 806 808 820 829 834 838 840 841 839 838 838 839 836 832 829 825 822 815 810 805 798 795 795 790 785 786 783 777 775 771 776
752 758 760 758 757 783 787 775 777 776 789 789 795 803 813 821 826 835 839 842 843 839 838 838 836 836 833 830 826 822 817 812 807 802 800 798 796 795 792 788 785 785 786 785
752 750 760 750 752 751 760 764 768 769 777 785 792 800 809 815 818 831 840 842 842 839 837 837 836 836 833 831 828 824 821 819 816 814 811 809 805 802 798 797 796 798 796 794
753 753 757 752 748 770 763 768 773 780 782 780 786 796 803 810 822 833 840 841 841 839 839 838 839 838 837 835 832 829 826 823 822 820 816 813 812 810 809 809 808 806 804 803
744 748 747 746 749 766 771 779 780 784 781 784 786 791 800 818 828 834 840 840 839 838 838 838 840 840 841 839 836 834 830 828 826 824 821 820 818 817 815 813 812 810 808 806
744 743 752 772 778 784 785 784 782 784 787 791 795 804 812 819 827 834 837 834 836 838 839 840 842 843 844 843 841 839 837 834 832 830 829 828 826 825 822 821 819 818 816 814
746 748 761 775 789 788 789 786 786 788 792 797 803 809 815 821 827 831 833 834 837 839 841 843 845 846 847 847 845 844 842 840 837 836 834 832 832 830 828 826 825 823 823 822
744 748 768 785 787 790 790 791 793 795 799 804 808 811 816 822 827 829 832 835 839 842 845 846 848 849 849 849 849 848 846 844 842 840 838 836 834 833 832 830 828 828 827 826
742 755 766 762 774 775 785 793 797 802 805 809 812 816 820 824 828 831 835 838 842 844 846 848 850 850 851 852 851 850 849 847 845 843 843 841 839 838 837 834 832 831 828 827
Wind_Speed
16 8 11 15 4 8 8 11 14 13 11 12 13 14 15 13 11 16 15 16 17 18 24 29 32 37 36 33 38 40 37 38 36 32 29 27 35 35 38 36 33 33 37 37
11 14 15 3 2 6 9 11 13 13 10 12 15 14 15 15 14 16 16 16 18 20 21 28 29 32 34 34 32 36 37 36 38 32 31 31 30 37 40 36 36 40 33 36
15 9 5 4 7 10 12 12 11 12 13 15 18 17 5 18 18 15 16 16 16 18 21 21 27 28 30 31 33 30 36 37 36 37 35 31 33 32 40 39 38 32 35 38
15 16 9 9 10 9 11 3 5 11 9 9 13 8 11 11 13 16 17 17 18 19 19 20 23 27 29 29 32 32 30 35 33 34 31 28 28 27 37 40 35 34 40 36
9 12 8 12 13 4 8 5 8 12 12 14 17 10 7 7 11 15 15 17 17 18 18 19 23 26 28 30 32 32 32 29 27 31 29 24 24 30 35 38 37 38 41 39
18 4 6 11 7 6 7 10 15 15 12 11 18 9 6 4 7 11 14 15 17 19 17 21 25 26 27 29 31 33 35 27 25 27 27 17 19 23 27 21 28 41 33 33
18 20 15 9 9 11 9 10 5 5 7 10 6 7 5 7 8 11 12 14 15 17 15 16 19 25 29 30 32 33 35 30 25 28 22 15 8 15 18 9 13 27 15 15
12 13 19 13 17 8 16 9 5 5 7 11 19 5 6 12 11 11 10 12 13 16 14 16 22 27 29 30 33 36 37 32 27 24 22 17 23 24 27 34 29 8 12 10
7 12 13 14 10 7 7 8 7 8 13 10 4 6 9 10 12 8 12 14 14 15 15 16 24 29 30 31 35 37 36 37 26 23 20 15 25 33 30 28 22 14 24 12
5 4 4 12 9 11 11 2 3 5 4 6 5 6 4 8 10 10 11 11 14 12 14 15 22 27 32 34 37 39 37 35 25 22 19 17 32 34 34 35 33 25 24 17
4 2 4 11 8 14 9 9 8 8 9 5 6 3 3 5 6 8 9 9 11 11 12 13 21 26 30 34 38 37 39 35 29 20 21 24 36 40 39 36 37 26 33 31
4 3 4 11 8 8 8 9 10 5 7 7 5 2 6 4 6 8 9 10 11 11 10 13 20 24 28 31 33 35 37 35 32 22 30 35 38 36 41 36 42 33 40 33
6 4 3 6 6 6 5 5 5 5 3 9 5 3 5 4 5 8 9 10 10 13 13 12 18 22 25 29 29 29 34 38 38 34 32 37 38 40 38 34 36 35 34 35
3 5 10 3 3 2 2 4 8 11 6 5 1 7 5 4 5 7 8 9 10 10 14 14 15 21 24 26 28 28 31 35 36 35 39 39 38 35 35 37 38 34 35 35
3 5 1 4 3 6 3 2 5 5 5 5 8 7 6 4 4 6 7 8 11 14 15 16 15 20 25 28 30 30 33 34 34 34 36 36 34 32 32 37 33 32 36 32
6 3 3 3 5 2 3 5 7 1 4 7 11 7 7 6 5 7 7 9 11 12 13 15 17 20 21 22 26 29 29 32 32 34 36 34 34 32 34 33 32 32 35 39
6 6 6 5 9 9 7 6 2 4 4 7 8 8 11 8 7 6 6 8 10 10 11 11 13 15 17 19 21 23 27 27 31 31 34 34 29 35 35 32 32 34 33 31
9 11 7 2 8 6 2 7 6 7 6 10 15 13 10 10 8 8 7 7 7 9 9 8 7 13 16 19 19 21 24 25 30 31 33 34 33 35 33 33 35 35 37 34
8 5 3 3 9 4 4 10 9 9 6 10 12 13 13 12 11 8 7 6 3 6 9 10 8 15 16 19 21 22 25 28 28 33 32 31 35 32 33 35 34 33 31 30
7 8 4 6 5 3 6 12 10 5 6 11 13 13 13 12 5 4 6 5 2 7 9 11 14 15 18 19 21 22 23 24 26 26 27 25 28 32 32 32 32 28 29 29
9 8 10 7 6 4 5 9 3 5 3 13 13 13 13 9 4 11 9 5 4 3 7 10 13 15 17 18 19 21 20 22 23 22 26 26 25 26 26 26 28 28 25 26
9 6 6 6 7 4 9 6 4 4 9 8 10 9 10 15 13 12 8 7 5 7 8 11 12 15 16 18 18 20 23 22 21 24 23 27 24 23 25 27 29 31 29 28
1 3 2 4 2 2 5 2 8 8 9 8 11 12 15 15 13 11 8 9 9 9 9 10 11 12 14 17 19 20 21 20 19 20 22 21 24 22 22 23 23 25 26 25
4 2 4 6 4 6 5 5 6 9 10 11 12 13 14 14 13 11 9 10 9 9 9 9 10 11 13 14 16 17 18 18 17 18 19 19 20 20 20 18 18 20 19 19
3 7 8 4 7 7 7 8 9 10 11 11 12 12 12 13 12 11 9 10 10 10 9 9 9 9 11 12 14 15 17 17 16 17 18 20 19 20 20 18 17 16 15 15
6 6 4 2 13 6 13 12 13 12 11 10 11 11 13 13 10 13 11 11 10 9 9 9 8 9 10 10 12 14 15 16 16 15 16 16 16 17 16 17 16 15 15 13
Wind_Direction
211 242 242 246 16 339 309 294 282 280 290 302 292 293 294 292 72 50 31 19 2 353 348 343 340 334 334 333 329 327 326 326 328 325 319 314 238 228 230 214 219 208 207 212
238 248 251 50 301 295 274 266 269 272 290 305 293 301 276 98 76 55 32 9 2 351 341 337 336 335 332 329 327 323 319 319 315 315 313 313 294 236 221 222 215 211 201 206
232 278 116 238 266 256 247 252 280 301 312 285 267 263 285 94 75 46 30 12 8 352 339 338 335 333 329 327 329 324 315 313 311 308 310 312 306 290 225 222 211 210 201 205
256 253 213 238 248 245 262 39 310 287 287 281 327 290 293 125 63 28 16 9 6 353 345 338 337 334 332 327 327 326 320 310 311 307 304 300 299 282 240 216 207 210 203 198
246 220 211 235 244 183 252 352 287 280 274 282 273 254 115 65 29 6 4 10 3 355 349 342 342 340 336 333 330 326 322 311 314 313 308 300 296 279 263 217 208 204 201 203
243 270 270 252 229 216 292 282 266 243 246 255 266 231 111 29 4 356 8 4 5 360 350 350 347 344 341 337 337 338 328 319 327 324 308 304 299 306 272 240 235 192 190 193
237 240 225 227 240 212 230 265 290 222 216 239 254 289 58 87 35 25 12 358 7 360 354 353 351 351 347 344 344 342 337 329 338 336 323 330 22 44 38 233 354 36 77 156
233 221 209 187 226 257 207 255 270 306 289 311 320 355 123 112 61 23 23 6 1 1 358 356 355 354 347 348 350 347 341 334 339 347 334 350 62 60 60 60 58 15 1 294
321 242 171 161 204 220 222 231 266 291 287 267 202 99 159 76 37 29 9 4 3 1 1 359 357 358 351 351 357 350 340 340 342 347 357 9 55 64 61 70 69 43 97 33
327 285 182 176 212 238 247 238 263 234 268 262 290 144 110 8 1 6 11 4 3 1 4 359 358 357 354 359 2 354 348 351 350 9 15 31 58 63 61 61 58 53 48 72
265 255 241 226 201 246 191 228 231 262 256 273 290 87 32 33 18 17 13 11 0 6 5 3 360 359 360 4 4 356 356 352 2 17 36 42 55 60 59 62 61 51 64 47
207 80 263 225 254 279 211 234 247 232 259 278 292 113 85 101 49 23 20 10 7 15 13 10 1 0 7 7 1 360 358 356 360 17 40 49 53 59 60 53 59 48 56 56
159 170 228 218 216 196 226 200 254 223 201 254 269 114 115 87 70 51 30 14 15 14 17 16 8 6 7 6 4 6 5 3 7 19 34 43 45 49 54 54 57 55 57 50
304 256 253 332 17 133 211 330 317 276 252 276 355 138 145 97 47 37 32 21 25 28 21 15 11 9 7 7 7 12 12 11 16 20 32 39 40 43 46 50 49 49 51 50
215 270 329 305 103 77 48 329 319 276 301 250 142 135 149 95 72 55 39 35 28 25 25 20 14 8 6 7 10 14 17 17 23 28 38 38 38 42 47 49 49 48 52 47
194 231 141 272 245 189 199 227 241 172 120 112 124 124 129 129 106 69 50 40 37 25 26 24 16 11 8 15 10 12 18 21 25 29 32 38 37 43 45 47 48 49 48 42
194 211 187 250 192 226 234 200 189 167 60 181 189 130 152 134 96 67 53 52 39 33 24 36 21 4 11 21 22 21 18 20 27 34 36 36 36 41 42 44 46 45 45 44
210 206 211 304 166 228 93 181 181 142 121 107 113 141 131 118 112 92 69 63 41 28 31 46 41 15 22 17 32 29 27 29 30 34 35 33 34 36 36 36 39 37 38 37
228 220 255 230 217 104 191 198 172 178 171 153 140 136 130 135 125 93 92 86 25 17 41 33 56 47 25 26 24 30 31 30 33 33 31 32 33 32 33 34 33 36 36 36
226 249 254 289 264 254 83 167 200 204 209 182 160 156 154 160 196 123 121 109 16 32 55 45 42 32 30 34 28 28 34 37 32 38 34 35 39 39 36 34 31 31 35 34
206 212 226 246 267 94 130 122 144 210 118 160 164 165 166 174 74 122 136 131 249 244 57 61 52 44 33 28 35 28 31 41 37 31 35 35 38 43 44 41 35 31 32 32
185 207 201 233 240 177 124 148 236 95 121 150 146 167 144 120 130 131 148 164 168 90 70 62 57 48 38 31 33 31 23 27 34 31 33 31 33 40 37 37 35 29 26 26
16 22 79 13 65 99 29 90 139 136 128 122 113 121 129 131 131 140 175 142 115 98 81 69 63 55 43 37 34 30 20 22 29 35 26 34 28 33 40 34 36 32 27 27
140 141 88 173 130 144 108 106 123 128 119 118 124 132 135 135 148 151 141 137 114 94 83 76 67 59 52 41 37 31 23 18 28 27 33 25 27 27 32 36 38 38 36 32
31 140 121 97 147 149 174 132 126 117 115 121 129 141 137 140 147 146 131 121 112 107 91 81 76 66 57 46 38 30 25 22 23 29 25 21 23 21 19 25 37 43 41 45
189 148 177 223 175 181 166 153 143 134 138 136 131 131 144 145 140 139 129 127 119 106 96 87 73 66 59 49 39 29 24 23 23 26 15 18 19 20 16 17 18 20 25 19